FW4761 Weather Reports


Display with metric or nautical units.
time (UTC)temp
F
wind
direction
speed
MPH
gust
MPH
rain 1hr
in
rain 24hr
in
rain mn
in
humidity
%
barometer
mb
20260509175133 83 69 4.0 10.0 0.00 0.00 0.00 58 975.2
20260509174120 83 355 3.0 8.0 0.00 0.00 0.00 60 975.4
20260509173615 83 34 4.0 8.0 0.00 0.00 0.00 61 975.5
20260509172603 82 25 2.0 9.0 0.00 0.00 0.00 63 975.6
20260509172057 82 331 3.0 9.0 0.00 0.00 0.00 63 975.6
20260509171551 82 78 3.0 10.0 0.00 0.00 0.00 63 975.7
20260509171044 81 35 2.0 10.0 0.00 0.00 0.00 64 975.7
20260509170539 81 350 4.0 9.0 0.00 0.00 0.00 64 975.9
20260509170032 81 346 3.0 9.0 0.00 0.00 0.00 64 975.9
20260509165020 81 26 2.0 8.0 0.00 0.00 0.00 65 975.9
20260509164514 80 336 3.0 6.0 0.00 0.00 0.00 65 976.0
20260509164008 80 312 2.0 8.0 0.00 0.00 0.00 66 976.0
20260509163503 80 349 3.0 8.0 0.00 0.00 0.00 67 976.0
20260509162957 80 325 4.0 8.0 0.00 0.00 0.00 66 976.1
20260509161954 80 349 4.0 8.0 0.00 0.00 0.00 66 976.1
20260509161452 79 285 3.0 8.0 0.00 0.00 0.00 67 976.1
20260509160953 79 355 2.0 8.0 0.00 0.00 0.00 68 976.1
20260509160453 79 355 2.0 7.0 0.00 0.00 0.00 67 976.2
20260509155953 79 309 2.0 7.0 0.00 0.00 0.00 67 976.1
20260509155453 78 355 3.0 6.0 0.00 0.00 0.00 68 976.0
20260509154952 78 346 3.0 7.0 0.00 0.00 0.00 67 976.1
20260509154453 78 349 3.0 7.0 0.00 0.00 0.00 68 976.1
20260509153953 78 293 3.0 7.0 0.00 0.00 0.00 68 976.0
20260509153453 78 272 4.0 9.0 0.00 0.00 0.00 68 975.9
20260509152453 77 282 3.0 7.0 0.00 0.00 0.00 69 976.1
20260509151953 77 284 3.0 8.0 0.00 0.00 0.00 70 976.1
20260509151448 76 294 4.0 8.0 0.00 0.00 0.00 70 976.1
20260509150949 76 279 3.0 7.0 0.00 0.00 0.00 71 976.0
20260509150448 75 312 2.0 6.0 0.00 0.00 0.00 73 975.9
20260509145948 75 290 2.0 5.0 0.00 0.00 0.00 74 975.9
20260509145449 74 288 1.0 4.0 0.00 0.00 0.00 74 975.9
20260509144948 74 287 1.0 7.0 0.00 0.00 0.00 74 975.9
20260509143448 73 286 2.0 6.0 0.00 0.00 0.00 75 975.8
20260509142949 73 284 3.0 7.0 0.00 0.00 0.00 75 975.9
20260509142448 73 277 3.0 7.0 0.00 0.00 0.00 75 976.0
20260509141948 72 279 3.0 8.0 0.00 0.00 0.00 76 976.1
20260509140948 71 304 4.0 8.0 0.00 0.00 0.00 77 975.8
20260509140449 70 281 3.0 8.0 0.00 0.00 0.00 78 975.8
20260509135949 70 287 3.0 6.0 0.00 0.00 0.00 79 975.9
20260509135448 69 310 3.0 6.0 0.00 0.00 0.00 80 975.9
20260509134439 69 308 3.0 7.0 0.00 0.00 0.00 80 975.9
20260509133933 69 296 3.0 7.0 0.00 0.00 0.00 81 976.0
20260509133428 68 298 3.0 7.0 0.00 0.00 0.00 82 976.0
20260509132922 68 297 2.0 5.0 0.00 0.00 0.00 83 975.8
20260509132415 67 294 3.0 5.0 0.00 0.00 0.00 84 975.9
20260509131910 67 292 3.0 7.0 0.00 0.00 0.00 85 976.0
20260509131410 66 291 3.0 8.0 0.00 0.00 0.00 86 976.0
20260509130911 65 293 3.0 8.0 0.00 0.00 0.00 86 976.0
20260509130410 65 288 4.0 8.0 0.00 0.00 0.00 87 976.0
20260509125908 64 286 4.0 8.0 0.00 0.00 0.00 87 976.0
20260509124909 64 299 3.0 5.0 0.00 0.00 0.00 88 975.9
20260509124410 64 297 4.0 5.0 0.00 0.00 0.00 88 976.0
20260509123402 63 317 3.0 5.0 0.00 0.00 0.00 89 975.8
20260509122902 63 319 3.0 5.0 0.00 0.00 0.00 89 975.8
20260509121900 63 0 2.0 5.0 0.00 0.00 0.00 89 975.6
20260509121400 63 344 1.0 3.0 0.00 0.00 0.00 89 975.6
20260509120900 63 345 0.0 0.0 0.00 0.00 0.00 89 975.5
20260509120400 62 344 0.0 0.0 0.00 0.00 0.00 89 975.4
20260509115359 63 344 0.0 0.0 0.00 0.00 0.00 89 975.3
20260509114902 62 344 0.0 0.0 0.00 0.00 0.00 89 975.3
20260509114356 63 345 0.0 0.0 0.00 0.00 0.00 89 975.2
20260509113850 62 346 0.0 0.0 0.00 0.00 0.00 88 975.0
20260509113343 63 346 0.0 0.0 0.00 0.00 0.00 88 974.9
20260509111825 64 348 0.0 0.0 0.00 0.00 0.00 88 974.5
20260509111319 64 348 0.0 0.0 0.00 0.00 0.00 88 974.5
20260509110813 64 348 0.0 0.0 0.00 0.00 0.00 88 974.5
20260509110307 64 348 0.0 0.0 0.00 0.00 0.00 87 974.4
20260509105256 64 347 0.0 0.0 0.00 0.00 0.00 87 974.3
20260509104750 65 347 0.0 0.0 0.00 0.00 0.00 87 974.3
20260509103737 65 348 0.0 0.0 0.00 0.00 0.00 87 974.3
20260509103231 65 348 0.0 0.0 0.00 0.00 0.00 87 974.3
20260509101714 65 348 1.0 5.0 0.00 0.00 0.00 87 974.2
20260509101208 66 347 2.0 6.0 0.00 0.00 0.00 87 974.2
20260509100702 66 348 3.0 6.0 0.00 0.00 0.00 87 974.1
20260509100156 66 42 3.0 6.0 0.00 0.00 0.00 87 974.0
20260509095143 66 61 3.0 7.0 0.00 0.00 0.00 87 973.9
20260509094638 66 53 3.0 6.0 0.00 0.00 0.00 87 973.8
20260509094131 66 46 3.0 6.0 0.00 0.00 0.00 87 973.8
20260509093625 67 40 4.0 7.0 0.00 0.00 0.00 87 973.8
20260509093119 67 42 4.0 9.0 0.00 0.00 0.00 87 973.7
20260509092614 67 38 5.0 9.0 0.00 0.00 0.00 87 973.7
20260509092108 67 355 5.0 10.0 0.00 0.00 0.00 87 973.7
20260509091055 67 355 5.0 12.0 0.00 0.00 0.00 87 973.7
20260509090550 67 355 5.0 11.0 0.00 0.00 0.00 86 973.7
20260509090044 68 40 7.0 11.0 0.00 0.00 0.00 86 973.8
20260509085537 68 38 5.0 9.0 0.00 0.00 0.00 86 973.7
20260509085034 68 40 4.0 9.0 0.00 0.00 0.00 86 974.0
20260509084533 68 341 3.0 8.0 0.00 0.00 0.00 86 974.0
20260509084034 69 17 2.0 7.0 0.00 0.00 0.00 86 973.9
20260509083532 69 24 3.0 6.0 0.00 0.00 0.00 86 973.9
20260509083032 69 25 4.0 8.0 0.00 0.00 0.00 85 974.1
20260509082531 69 13 4.0 8.0 0.00 0.00 0.00 85 974.1
20260509081032 69 31 3.0 10.0 0.00 0.00 0.00 85 974.1
20260509080532 69 59 3.0 10.0 0.00 0.00 0.00 84 974.1
20260509080032 69 22 4.0 10.0 0.00 0.00 0.00 84 974.0
20260509075532 70 46 5.0 10.0 0.00 0.00 0.00 83 973.9
20260509075032 70 9 6.0 14.0 0.00 0.00 0.00 83 973.7
20260509074531 70 35 8.0 16.0 0.00 0.00 0.00 82 973.7
20260509074032 70 9 9.0 16.0 0.00 0.00 0.00 81 973.4
20260509073531 71 9 10.0 16.0 0.00 0.00 0.00 80 973.1
20260509073031 72 15 11.0 18.0 0.00 0.00 0.00 78 972.9
20260509072526 73 355 12.0 19.0 0.00 0.00 0.00 76 972.8
20260509072025 74 326 16.0 26.0 0.00 0.00 0.00 73 972.7
20260509071526 75 10 15.0 26.0 0.00 0.00 0.00 69 972.4
20260509071026 78 355 10.0 23.0 0.00 0.00 0.00 65 971.8
20260509070526 79 0 10.0 18.0 0.00 0.00 0.00 47 972.1
20260509070025 76 181 9.0 19.0 0.00 0.00 0.00 55 971.5
20260509065526 73 172 9.0 19.0 0.00 0.00 0.00 66 972.0
20260509064529 71 0 7.0 19.0 0.00 0.00 0.00 83 972.6
20260509064029 71 191 3.0 16.0 0.00 0.00 0.00 83 973.3
20260509063529 71 292 5.0 16.0 0.00 0.00 0.00 83 973.9
20260509063030 71 0 7.0 16.0 0.00 0.00 0.00 83 974.2
20260509062525 71 0 7.0 24.0 0.00 0.00 0.00 83 974.2
20260509062025 71 0 8.0 24.0 0.00 0.00 0.00 83 973.9
20260509061526 71 0 10.0 23.0 0.00 0.00 0.00 83 974.5
20260509061025 71 0 12.0 23.0 0.00 0.00 0.00 83 974.1
20260509060526 70 266 11.0 21.0 0.00 0.00 0.00 83 973.9
20260509060025 70 0 11.0 20.0 0.00 0.00 0.00 83 973.7
20260509055025 70 0 7.0 15.0 0.00 0.00 0.00 84 974.4
20260509054526 70 0 9.0 17.0 0.00 0.00 0.00 84 974.6
20260509054025 70 0 9.0 17.0 0.00 0.00 0.00 84 974.2
20260509053026 69 0 6.0 13.0 0.00 0.00 0.00 84 974.2
20260509052526 69 0 6.0 13.0 0.00 0.00 0.00 85 974.4
20260509052026 69 0 8.0 18.0 0.00 0.00 0.00 85 974.9
20260509051023 69 0 8.0 15.0 0.00 0.00 0.00 85 974.7
20260509050521 69 0 8.0 15.0 0.00 0.00 0.00 85 974.8
20260509050019 69 0 9.0 14.0 0.00 0.00 0.00 85 974.3
20260509045018 69 0 6.0 12.0 0.00 0.00 0.00 84 974.5
20260509044516 69 0 7.0 12.0 0.00 0.00 0.00 84 975.0
20260509044017 69 0 6.0 12.0 0.00 0.00 0.00 84 974.9
20260509043515 70 0 5.0 10.0 0.00 0.00 0.00 84 975.3
20260509043016 70 0 7.0 12.0 0.00 0.00 0.00 83 975.3
20260509042013 70 0 6.0 9.0 0.00 0.00 0.00 82 975.1
20260509041512 71 195 4.0 8.0 0.00 0.00 0.00 82 975.6
20260509041012 71 222 3.0 8.0 0.00 0.00 0.00 81 975.8
20260509040510 71 209 4.0 8.0 0.00 0.00 0.00 81 975.6
20260509040008 71 241 4.0 11.0 0.00 0.00 0.00 82 975.9
20260509035509 70 313 8.0 17.0 0.00 0.00 0.00 82 976.7
20260509035008 69 346 10.0 21.0 0.00 0.00 0.00 83 976.7
20260509034508 69 329 6.0 21.0 0.00 0.00 0.00 83 976.8
20260509034009 69 0 1.0 9.0 0.00 0.00 0.00 82 975.8
20260509033008 69 0 3.0 8.0 0.00 0.00 0.00 82 974.4
20260509032511 69 166 2.0 5.0 0.00 0.00 0.00 82 974.6
20260509032005 69 0 2.0 5.0 0.00 0.00 0.00 82 974.7
20260509031458 69 0 3.0 8.0 0.00 0.00 0.00 82 974.5
20260509030446 70 0 3.0 9.0 0.00 0.00 0.00 81 974.2
20260509025939 70 0 2.0 5.0 0.00 0.00 0.00 81 974.4
20260509024422 70 0 4.0 13.0 0.00 0.00 0.00 80 973.8
20260509023916 71 0 5.0 13.0 0.00 0.00 0.00 79 973.8
20260509023410 71 0 7.0 13.0 0.00 0.00 0.00 79 973.6
20260509022904 71 0 9.0 14.0 0.00 0.00 0.00 79 973.2
20260509021852 71 0 7.0 12.0 0.00 0.00 0.00 78 973.1
20260509021345 71 0 4.0 10.0 0.00 0.00 0.00 78 973.4
20260509020840 71 0 2.0 8.0 0.00 0.00 0.00 77 973.9
20260509020333 72 0 2.0 8.0 0.00 0.00 0.00 77 974.2
20260509015827 72 0 2.0 6.0 0.00 0.00 0.00 77 974.4
20260509015322 72 0 3.0 6.0 0.00 0.00 0.00 77 974.3
20260509014310 72 0 3.0 6.0 0.00 0.00 0.00 77 973.8
20260509013804 72 173 3.0 9.0 0.00 0.00 0.00 77 973.2
20260509013258 72 171 4.0 9.0 0.00 0.00 0.00 76 972.9
20260509012752 73 186 5.0 10.0 0.00 0.00 0.00 75 972.6
20260509011233 73 201 7.0 14.0 0.00 0.00 0.00 74 971.8
20260509010727 73 175 7.0 13.0 0.00 0.00 0.00 73 971.7
20260509010221 74 177 8.0 13.0 0.00 0.00 0.00 72 971.8
20260509005715 74 203 7.0 13.0 0.00 0.00 0.00 72 972.2
20260509005210 74 167 6.0 10.0 0.00 0.00 0.00 71 972.5
20260509004157 75 174 7.0 12.0 0.00 0.00 0.00 70 972.6
20260509003651 75 184 6.0 11.0 0.00 0.00 0.00 70 972.7
20260509003146 76 199 8.0 13.0 0.00 0.00 0.00 70 972.7
20260509002134 76 188 6.0 14.0 0.00 0.00 0.00 69 972.9
20260509001627 76 215 7.0 14.0 0.00 0.00 0.00 69 972.8
20260509000625 77 0 8.0 16.0 0.00 0.00 0.00 69 972.6
20260509000124 77 186 8.0 16.0 0.00 0.00 0.00 69 972.6
20260508235624 77 178 8.0 14.0 0.00 0.00 0.00 68 972.5
20260508235124 77 178 9.0 17.0 0.00 0.00 0.00 68 972.3
20260508234621 78 174 9.0 17.0 0.00 0.00 0.00 67 972.2
20260508234122 78 178 10.0 17.0 0.00 0.00 0.00 68 972.2
20260508233622 78 176 9.0 16.0 0.00 0.00 0.00 67 972.1
20260508232619 79 184 8.0 16.0 0.00 0.00 0.00 66 972.0
20260508230618 79 198 11.0 21.0 0.00 0.00 0.00 66 972.3
20260508225618 79 163 9.0 16.0 0.00 0.00 0.00 65 972.3
20260508225118 79 179 8.0 15.0 0.00 0.00 0.00 65 972.4
20260508224611 79 188 8.0 12.0 0.00 0.00 0.00 65 972.5
20260508224105 79 199 7.0 14.0 0.00 0.00 0.00 65 972.5
20260508223102 79 181 8.0 14.0 0.00 0.00 0.00 66 972.6
20260508222102 80 179 7.0 13.0 0.00 0.00 0.00 64 972.5
20260508221602 80 180 7.0 13.0 0.00 0.00 0.00 63 972.6
20260508221102 80 215 7.0 13.0 0.00 0.00 0.00 64 972.7
20260508220601 80 169 7.0 14.0 0.00 0.00 0.00 64 972.6
20260508215601 79 175 7.0 15.0 0.00 0.00 0.00 64 972.9
20260508215103 79 198 9.0 15.0 0.00 0.00 0.00 64 973.0
20260508214601 79 167 9.0 15.0 0.00 0.00 0.00 64 973.1
20260508214058 79 153 9.0 18.0 0.00 0.00 0.00 64 972.8
20260508213557 80 151 9.0 18.0 0.00 0.00 0.00 64 972.9
20260508213057 80 192 8.0 16.0 0.00 0.00 0.00 65 972.8
20260508212558 80 180 8.0 16.0 0.00 0.00 0.00 64 972.9
20260508212057 80 173 8.0 17.0 0.00 0.00 0.00 63 973.0
20260508211057 80 173 8.0 16.0 0.00 0.00 0.00 63 973.2
20260508210557 80 183 9.0 16.0 0.00 0.00 0.00 62 973.4
20260508204553 79 140 10.0 16.0 0.00 0.00 0.00 63 973.6
20260508204053 80 180 9.0 16.0 0.00 0.00 0.00 63 973.7
20260508203554 80 222 8.0 16.0 0.00 0.00 0.00 63 973.7
20260508203054 80 169 8.0 16.0 0.00 0.00 0.00 63 973.8
20260508202053 80 178 9.0 16.0 0.00 0.00 0.00 62 973.9
20260508201057 80 164 9.0 18.0 0.00 0.00 0.00 62 974.0
20260508200556 80 194 8.0 18.0 0.00 0.00 0.00 62 973.9
20260508200049 80 0 8.0 15.0 0.00 0.00 0.00 62 974.0
20260508195547 80 208 10.0 24.0 0.00 0.00 0.00 61 974.0
20260508194048 80 182 9.0 18.0 0.00 0.00 0.00 61 974.3
20260508193547 79 191 9.0 18.0 0.00 0.00 0.00 61 974.4
20260508193047 79 166 9.0 18.0 0.00 0.00 0.00 61 974.4
20260508192547 80 175 9.0 20.0 0.00 0.00 0.00 61 974.4
20260508192045 79 167 10.0 20.0 0.00 0.00 0.00 62 974.6
20260508191545 79 182 9.0 18.0 0.00 0.00 0.00 63 974.7
20260508191050 79 149 9.0 16.0 0.00 0.00 0.00 62 974.7
20260508190545 78 182 9.0 19.0 0.00 0.00 0.00 62 974.7
20260508185543 77 175 8.0 16.0 0.00 0.00 0.00 64 974.9
20260508185043 77 173 8.0 16.0 0.00 0.00 0.00 63 975.0
20260508183535 77 175 6.0 12.0 0.00 0.00 0.00 63 975.3
20260508183028 77 227 6.0 12.0 0.00 0.00 0.00 63 975.5
20260508182523 76 201 7.0 12.0 0.00 0.00 0.00 63 975.6
20260508182018 76 162 7.0 12.0 0.00 0.00 0.00 63 975.7
20260508181511 76 164 7.0 12.0 0.00 0.00 0.00 63 975.7
20260508181005 75 173 6.0 12.0 0.00 0.00 0.00 63 975.8
20260508180458 75 219 6.0 10.0 0.00 0.00 0.00 62 975.8
20260508175952 75 198 7.0 13.0 0.00 0.00 0.00 61 976.1
20260508175447 75 202 7.0 13.0 0.00 0.00 0.00 60 976.1